Location: Imbshausen
(51.7598°N, 10.0419°E)
Time: 21:00:20
(UTC+00:00)

Daily predictions for brighter satellites

Satellite Brightness Start Highest point End
(mag) Time Altitude Azimuth Time Altitude Azimuth Time Altitude Azimuth
CARTOSAT-1 4.5 16:56:23 10° ESE 16:59:53 26° ENE 17:03:22 10° N
Cosmos 1864 Rocket 4.4 16:55:45 10° N 17:01:54 72° ENE 17:08:01 10° SSE
Cosmos 1356 Rocket 3.8 16:58:28 10° N 17:02:09 37° ENE 17:05:50 10° SE
USA 267 3.3 16:55:38 10° ENE 17:02:13 85° SSE 17:08:47 10° WSW
Cosmos 2297 Rocket 3.7 17:02:53 10° SE 17:06:13 16° E 17:09:34 10° ENE
USA 290 3.2 17:03:54 10° SSE 17:06:41 28° ESE 17:09:30 10° NE
Cosmos 1441 Rocket 2.9 17:03:27 10° SSW 17:06:48 82° WNW 17:10:09 10° NNE
In-Cosmos 22 Rocket 4.2 17:01:50 10° S 17:07:18 79° E 17:12:59 10° NNE
Cosmos 841 Rocket 4.1 17:03:05 10° SW 17:08:11 58° WNW 17:13:18 10° NNE
SAR-Lupe-5 4.3 17:06:32 10° NNE 17:09:04 50° ESE 17:11:29 10° S
ATLAS 3B R/B 4.5 17:02:13 10° NW 17:09:22 41° WSW 17:16:10 10° S
Cosmos 1814 Rocket 4.4 17:04:47 10° S 17:09:46 44° ESE 17:14:44 10° NE
SAR-Lupe-4 3.5 17:06:43 10° SSE 17:10:14 63° ENE 17:13:48 10° N
Cosmos 1125 Rocket 3.9 17:07:17 10° NNW 17:12:13 42° NE 17:17:08 10° SE
Cosmos 1455 Rocket 4.3 17:09:50 10° NNE 17:13:03 20° ENE 17:16:16 10° ESE
IRS-1C 4.5 17:08:44 10° S 17:14:02 72° WSW 17:19:23 10° NNW
Cosmos 2221 Rocket 4.5 17:16:25 10° SSE 17:20:12 28° E 17:24:02 10° NNE
YAOGAN 1 2.5 17:17:11 10° SSE 17:21:23 62° ENE 17:25:36 10° N
Okean 2 Rocket 3.3 17:17:42 10° N 17:21:59 48° ENE 17:26:14 10° SSE
Cosmos 2123 Rocket 4.0 17:16:07 10° S 17:22:26 81° E 17:28:46 10° NNE
Cosmos 1900 4.4 17:18:32 10° SSW 17:23:38 80° SE 17:28:42 10° NE
NOAA 6 4.2 17:19:30 10° SE 17:24:26 48° ENE 17:29:24 10° N
Okean 1 Rocket 3.3 17:21:13 10° N 17:25:28 45° ENE 17:29:41 10° SSE
Spot 4 Rocket 4.0 17:21:37 10° SSE 17:26:39 60° ENE 17:31:41 10° N
COSMOS 2428 2.7 17:21:58 10° NNW 17:27:44 84° ENE 17:33:28 10° SSE
Cosmos 1980 3.9 17:25:54 10° NNW 17:31:26 49° NE 17:36:53 10° SE
Sich 1 Rocket 3.8 17:27:06 10° N 17:31:33 50° ENE 17:35:58 10° SSE
ARIANE 5 R/B 3.6 17:28:24 10° S 17:33:22 49° W 17:38:18 10° NNW
Aureole 3 Rocket 3.2 17:32:42 10° N 17:37:01 41° ENE 17:40:22 10° SE
Cosmos 2237 Rocket 2.4 17:31:31 10° NNW 17:37:03 50° NE 17:42:34 10° SE
Cosmos 158 Rocket 3.8 17:32:55 10° SSW 17:37:43 67° ESE 17:42:33 10° NNE
ATLAS 5 CENTAUR R/B 3.1 17:34:38 10° WNW 17:38:38 41° SW 17:43:30 10° SSE
Cosmos 192 4.3 17:33:50 10° NNW 17:38:44 88° WSW 17:43:37 10° SSE
SeaSat 1 3.8 17:35:38 10° S 17:40:15 42° WSW 17:44:55 10° NW
Cosmos 1378 Rocket 3.5 17:36:34 10° S 17:40:53 90° SW 17:45:13 10° N
Resurs 01 Rocket 1.8 17:37:30 10° SE 17:41:44 48° ENE 17:45:59 10° N
SKYMED 2 3.5 17:37:57 10° NNE 17:42:20 85° ESE 17:46:41 10° SSW
ARIANE 6 FM1 Upper Stage 4.1 17:39:12 10° NW 17:42:21 22° NNE 17:44:13 16° NE
GP-B 3.6 17:40:28 10° S 17:44:47 63° W 17:49:09 10° N
Cosmos 2219 Rocket 4.3 17:41:41 10° NW 17:46:26 30° WSW 17:51:11 10° SSW
COSMO-SKYMED 1 2.5 17:42:34 10° NNE 17:46:38 57° E 17:50:41 10° S
Cosmos 2228 4.0 17:44:43 10° NNE 17:48:09 24° ENE 17:49:16 21° E
Cosmos 2292 Rocket 4.0 17:47:38 10° SSW 17:50:22 41° WNW 17:53:18 10° N
PSLV R/B 3.3 17:47:26 10° SSE 17:51:34 80° ENE 17:55:41 10° NNW
Cosmos 2322 4.3 17:46:16 10° NW 17:51:54 62° WSW 17:57:32 10° SSE
NOSS 3-3 (A) 3.9 17:47:34 10° SSW 17:52:37 53° SE 17:57:36 15° NE
USA 306 2.6 17:51:34 10° WNW 17:54:14 35° SW 17:55:03 24° SSE
Cosmos 1447 Rocket 4.5 17:48:27 10° S 17:54:25 57° E 18:00:25 10° NNE
Resurs 1-3 4.1 17:51:04 10° S 17:55:20 61° WSW 17:59:37 10° NNW
Cosmos 1782 4.5 17:54:02 10° NNE 17:55:10 15° NE 17:55:10 15° NE
Cosmos 2285 Rocket 4.0 17:52:22 10° NNW 17:58:53 79° ENE 18:05:16 10° SSE
Cosmos 1025 Rocket 2.9 17:54:54 10° S 17:59:12 79° E 18:03:33 10° NNE
SJ-7 4.3 17:55:40 10° S 17:59:21 74° WSW 18:03:03 10° NNW
SL-16 R/B 3.1 17:55:27 10° NNW 18:00:22 29° NE 18:02:26 23° ENE
Cosmos 2227 Rocket 3.6 18:01:01 10° SE 18:03:35 18° ESE 18:03:35 18° ESE
SJ-6B 2.4 18:05:12 11° SSE 18:08:30 58° ENE 18:11:54 10° N
NOSS 3-4 (A) 3.7 18:02:52 10° NW 18:09:21 71° NE 18:15:10 18° ESE
NOSS 3-4 (C) 3.7 18:03:08 10° NW 18:09:37 70° NE 18:15:23 19° ESE
SPOT 5 3.4 18:08:20 25° ESE 18:10:24 37° ENE 18:15:02 10° N
CZ-2D R/B 4.5 18:09:30 10° S 18:13:14 45° W 18:17:05 10° NNW
Cosmos 2034 Rocket 4.4 18:09:37 10° N 18:15:18 37° ENE 18:18:04 25° ESE
Cosmos 1674 Rocket 4.1 18:11:07 10° SSW 18:15:27 59° WNW 18:19:51 10° N
Cosmos 1513 Rocket 4.4 18:11:27 10° N 18:17:42 73° ENE 18:24:02 10° SSE
Okean O Rocket 3.9 18:24:53 10° NNE 18:24:53 10° NNE 18:24:56 10° NNE
Cosmos 1867 4.0 18:18:20 10° WSW 18:23:42 59° NW 18:27:56 17° NE
ATLAS 2AS CENTAUR R/B 3.9 18:20:16 10° W 18:26:29 34° NNW 18:31:16 16° NE
CZ-4 R/B 2.7 18:28:09 23° NNE 18:28:09 23° NNE 18:29:56 10° N
CZ-4B R/B 3.8 18:26:45 32° ENE 18:26:53 32° ENE 18:31:32 10° N
Lacrosse 5 rocket 1.4 18:24:10 10° W 18:27:37 55° NNW 18:28:21 45° NNE
CZ-4B DEB 4.4 18:29:55 35° ESE 18:31:40 47° ENE 18:36:53 10° N
Meteor 1-31 Rocket 3.5 18:32:59 34° NNE 18:32:59 34° NNE 18:35:11 10° N
ADEOS 4.2 18:32:00 35° ENE 18:32:00 35° ENE 18:36:36 10° N
CZ-4C R/B 1.9 18:28:44 10° SW 18:33:08 80° NW 18:36:09 27° NE
IRAS Rocket 4.4 18:29:35 10° SSE 18:35:11 75° WSW 18:40:51 10° NNW
CRYOSAT 2 4.3 18:32:00 10° N 18:36:55 85° W 18:41:48 10° S
USA 267 3.5 18:41:48 30° ENE 18:45:07 60° N 18:51:32 10° W
Cosmos 1464 Rocket 3.9 18:39:04 10° N 18:45:29 80° E 18:51:49 10° SSE
CSL-04 Debris 4.0 18:44:38 31° SE 18:47:15 71° ENE 18:52:41 10° NNW
ERS-1 Rocket 3.7 18:48:49 35° NE 18:48:49 35° NE 18:52:24 10° N
Cosmos 2297 Rocket 2.1 18:43:43 10° SSW 18:49:22 83° ESE 18:52:37 27° NNE
Cosmos 1607 4.3 18:44:00 10° WSW 18:50:05 63° NW 18:54:10 22° NE
CSL-04 Rocket 3.4 18:47:26 29° SSE 18:50:10 79° ENE 18:55:29 10° NNW
Cosmos 1570 Rocket 3.8 18:45:04 10° SSW 18:50:21 77° ESE 18:52:48 32° NNE
Cosmos 1455 Rocket 3.7 18:46:53 10° NNW 18:51:05 53° W 18:55:14 10° S
Cosmos 2344 4.0 18:44:47 10° S 18:51:12 35° SE 18:51:12 35° SE
Cosmos 1943 4.3 18:46:58 10° NNW 18:51:36 29° NE 18:51:36 29° NE
Cosmos 1975 Rocket 4.4 18:48:42 10° S 18:50:38 26° S 18:50:38 26° S
DNEPR-1 R/B 3.8 18:48:25 10° NW 18:53:10 84° NE 18:54:13 58° SE
PAYLOAD B 4.1 19:05:27 64° ESE 19:06:09 72° ENE 19:11:45 10° NNW
Cosmos 2208 Rocket 3.8 19:02:18 10° SSW 19:07:28 78° ESE 19:07:28 78° ESE
Terra 3.2 19:11:53 27° N 19:11:53 27° N 19:14:13 10° N
NOSS 3-3 (C) 4.1 19:08:59 10° WSW 19:14:23 66° NW 19:16:44 38° NNE
Resurs 01 Rocket 4.0 19:14:51 10° SW 19:18:20 23° W 19:21:52 10° NW
Cosmos 2237 Rocket 3.6 19:15:50 10° NW 19:20:58 36° WSW 19:25:52 11° S
ARIANE 6 FM1 Upper Stage 4.2 19:18:08 10° NW 19:20:14 29° NNW 19:20:14 29° NNW
Gblst 52 Del rocket 4.4 19:15:52 10° W 19:23:17 89° S 19:24:03 72° E
Cosmos 773 Rocket 4.1 19:19:38 10° SSW 19:24:54 76° WNW 19:25:06 74° NW
Cosmos 2228 4.1 19:21:22 10° NNW 19:25:17 40° W 19:25:37 40° WSW
SL-16 R/B 2.5 19:39:20 10° NNW 19:44:19 64° WNW 19:44:19 64° WNW
Cosmos 2227 Rocket 3.4 19:42:40 10° SSW 19:45:30 31° SW 19:45:30 31° SW
SPOT 5 4.2 19:47:23 33° WSW 19:48:21 36° W 19:53:00 10° NNW
Okean O Rocket 4.3 20:02:07 12° NNW 20:02:07 12° NNW 20:02:31 10° NNW
CZ-4 R/B 4.3 20:03:09 13° NW 20:03:09 13° NW 20:03:41 10° NW
Lacrosse 5 rocket 4.4 20:01:38 10° WNW 20:01:47 11° WNW 20:01:47 11° WNW
CZ-4B R/B 4.3 20:08:36 41° WNW 20:08:36 41° WNW 20:12:27 10° NNW
BREEZE-M DEB (TANK) 4.4 19:58:34 10° W 20:10:45 51° SW 20:10:45 51° SW
ATLAS 2AS CENTAUR R/B 3.9 20:13:09 10° NW 20:18:40 32° N 20:18:40 32° N
CZ-4C R/B 3.8 20:17:46 10° WNW 20:21:07 29° NW 20:21:07 29° NW
USA 267 3.9 20:29:08 51° NW 20:29:08 51° NW 20:34:10 10° WNW
Cosmos 2297 Rocket 4.0 20:29:21 10° W 20:34:05 26° NW 20:34:29 26° NNW
